SCP
-0 0 -0 -0 -0 -0 -0 -0 -0 -0 -0 -0 -0 -0 -0 -0 -0 -0 -0 -0 -0 -0 -0 0 0 0 0 0 0 0 0 0 0 0 0 0 0 0 0 0 0 0 0 0 0
-0 -0 0 -0 -0 -0 -0 -0 -0 -0 -0 -0 -0 -0 -0 -0 -0 -0 -0 -0 -0 -0 0 0 0 0 0 0 0 0 0 0 0 0 0 0 0 0 0 0 0 0 0 0 0
-0 -0 -0 -0 -0 -0 -0 -0 -0 -0 -0 -0 -0 -0 -0 -0 -0 -0 -0 -0 -0 -0 0 0 0 0 0 0 0 0 0 0 0 0 0 0 0 0 0 0 0 0 0 0 0
-0 -0 -0 -0 -0 -0 -0 -0 -0 -0 -0 -0 -0 -0 -0 -0 -0 -0 -0 -0 -0 0 0 0 0 0 0 0 0 0 0 0 0 0 0 0 0 0 0 0 0 0 0 0 0
-0 -0 -0 -0 -0 -0 -0 -0 -0 -0 -0 -0 -0 -0 0 -0 -0 -0 -0 -0 0 0 0 0 0 0 0 0 0 0 0 0 0 0 0 0 0 0 0 0 0 0 0 0 0
-0 -0 -0 -0 -0 -0 -0 -0 -0 -0 -0 -0 -0 0 -0 -0 -0 -0 -0 0 0 0 0 0 0 0 0 0 0 0 0 0 0 0 0 0 0 0 0 0 0 0 0 0 0
-0 -0 -0 -0 -0 -0 -0 -0 -0 -0 -0 -0 -0 0 -0 0 0 -0 0 0 0 0 0 0 0 0 0 0 0 0 0 0 0 0 0 0 0 0 0 0 0 0 0 0 0
-0 -0 -0 -0 -0 -0 -0 -0 -0 -0 -0 0 0 0 0 0 0 0 0 0 0 0 0 0 0 0 0 0 0 0 0 0 0 0 0 0 0 0 0 0 0 0 0 0 0
-0 -0 -0 -0 -0 -0 -0 -0 -0 -0 -0 -0 -0 -0 0 0 0 0 0 0 0 0 0 0 0 0 0 0 0 0 0 0 0 0 0 0 0 0 0 0 0 0 0 0 0
-0 -0 -0 -0 -0 -0 -0 -0 -0 -0 -0 0 0 0 0 0 0 0 0 0 0 0 0 0 0 0 0 0 0 0 0 0 0 0 0 0 0 0 0 0 0 0 0 0 0
0 -0 -0 -0 -0 -0 -0 0 -0 -0 -0 0 0 0 0 0 0 -0 0 0 0 0 0 0 0 0 0 0 0 0 0 0 0 0 0 0 0 0 0 0 0 0 0 0 0
0 0 0 -0 -0 0 0 0 0 0 0 0 0 0 0 0 -0 -0 0 0 0 0 0 0 0 0 0 0 0 0 0 0 0 0 0 0 0 0 0 0 0 0 0 0 0
0 0 0 0 0 0 0 0 0 0 0 0 0 0 0 -0 0 -0 0 0 0 0 0 0 0 0 0 0 0 0 0 0 0 0 0 0 0 0 0 0 0 0 0 0 0
0 0 0 0 0 0 0 0 0 0 -0 0 0 -0 -0 -0 -0 0 0 0 0 0 0 0 0 0 0 0 0 0 0 0 0 0 0 0 0 0 0 0 0 0 0 0 0
0 0 0 0 0 0 0 0 0 0 -0 -0 0 -0 0 -0 0 -0 0 0 0 0 0 0 0 0 0 0 0 0 0 0 0 0 0 0 0 0 0 0 0 0 0 0 0
0 0 0 0 0 0 0 0 0 0 -0 -0 -0 0 0 -0 0 -0 0 0 0 0 0 0 0 0 0 0 0 0 0 0 0 0 0 0 0 0 0 0 0 0 0 0 0
0 0 0 0 0 0 0 0 0 0 0 0 0 0 0 0 0 0 0 0 0 0 0 0 0 0 0 0 0 0 0 0 0 0 0 0 0 0 0 0 0 0 0 0 0
0 0 0 0 0 0 0 0 0 0 0 0 0 0 0 0 0 0 0 0 0 0 0 0 0 0 0 0 0 0 0 0 0 0 0 0 0 0 0 0 0 0 0 0 0
0 0 0 0 0 0 0 0 0 0 0 0 0 0 0 0 0 0 0 0 0 0 0 0 0 0 0 0 0 0 0 0 0 0 0 0 0 0 0 0 0 0 0 0 0
0 0 0 0 0 0 0 0 0 0 0 0 0 0 0 0 0 0 0 0 0 0 0 0 0 0 0 0 0 0 0 0 0 0 0 0 0 0 0 0 0 0 0 0 0
0 0 0 0 0 0 0 0 0 0 0 0 0 0 0 0 0 0 0 0 0 0 0 0 0 0 0 0 0 0 0 0 0 0 0 0 0 0 0 0 0 0 0 0 0
0 0 0 0 0 0 0 0 0 0 0 0 0 0 0 0 0 0 0 0 0 0 0 0 0 0 0 0 0 0 0 0 0 0 0 0 0 0 0 0 0 0 0 0 0
0 0 0 0 0 0 0 0 0 0 0 0 0 0 0 0 0 0 0 0 0 0 0 0 0 0 0 0 0 0 0 0 0 0 0 0 0 0 0 0 0 0 0 0 0
0 0 0 0 0 0 0 0 0 0 0 0 0 0 0 0 0 0 0 0 0 0 0 0 0 0 0 0 0 0 0 0 0 0 0 0 0 0 0 0 0 0 0 0 0
0 0 0 0 0 0 0 0 0 0 0 0 0 0 0 0 0 0 0 0 0 0 0 0 0 0 0 0 0 0 0 0 0 0 0 0 0 0 0 0 0 0 0 0 0
0 0 0 0 0 0 0 0 0 0 0 0 0 0 0 0 0 0 0 0 0 0 0 0 0 0 0 0 0 0 0 0 0 0 0 0 0 0 0 0 0 0 0 0 0
0 0 0 0 0 0 0 0 0 0 0 0 0 0 0 0 0 0 0 0 0 0 0 0 0 0 0 0 0 0 0 0 0 0 0 0 0 0 0 0 0 0 0 0 0
Wind_Speed_500mb
6 5 6 8 12 15 16 15 13 12 10 12 12 5 11 14 21 18 17 23 22 14 7 10 10 4 8 14 14 7 9 7 8 12 10 22 12 26 31 40 39 24 23 20 27
6 6 7 11 16 17 15 11 9 7 7 8 2 6 11 8 10 27 17 14 14 14 7 8 8 10 10 11 14 15 9 7 8 9 11 16 22 16 14 28 27 28 23 23 34
9 7 11 16 19 17 14 9 5 4 3 3 5 10 14 6 4 27 21 14 12 9 8 3 3 11 14 16 21 14 9 8 24 46 44 22 24 12 28 13 21 25 33 40 44
10 11 15 19 21 16 9 7 6 5 2 4 9 7 17 4 4 26 22 15 12 8 8 1 2 8 13 12 13 15 26 16 31 36 23 14 23 37 39 18 26 33 36 40 50
10 12 16 20 19 9 8 5 8 10 11 10 5 2 5 12 18 20 19 17 11 7 3 11 9 11 11 15 21 20 11 25 33 49 49 48 33 31 32 27 31 35 45 48 47
9 11 15 17 13 7 6 6 10 13 10 16 23 5 2 13 20 20 14 17 21 14 11 9 14 26 30 18 15 33 48 40 37 34 25 31 12 12 18 29 41 46 48 50 53
9 11 13 13 10 8 5 6 7 7 5 7 7 4 29 18 26 15 10 21 27 22 24 14 7 3 16 20 48 36 16 21 14 11 22 30 17 9 16 39 50 52 53 57 59
8 10 11 10 10 9 5 4 5 6 1 8 5 12 12 18 24 6 11 18 21 22 28 33 32 45 20 49 10 9 9 7 8 19 12 7 6 13 26 47 51 55 60 65 66
8 8 8 8 11 9 6 1 5 6 2 6 9 5 8 10 25 19 12 9 13 27 32 27 36 30 12 6 6 10 1 5 8 5 7 6 9 8 31 51 56 61 65 66 74
10 8 8 11 8 10 9 13 11 4 1 5 6 8 13 14 33 21 10 3 1 2 7 19 21 11 10 14 3 6 3 4 7 2 12 16 12 10 30 54 54 56 64 72 75
13 10 8 10 8 11 5 3 4 9 36 24 21 14 16 5 27 32 7 3 13 22 10 23 19 9 9 2 11 6 3 7 3 4 9 11 13 7 13 51 54 59 69 69 68
16 14 10 11 9 8 8 6 6 19 22 20 19 10 29 17 4 31 28 14 19 9 5 13 11 10 8 13 4 6 7 4 4 4 9 10 9 4 14 26 33 50 65 64 74
17 16 11 12 7 8 5 15 24 14 10 9 15 15 11 25 23 39 19 14 19 18 18 15 7 15 5 9 12 4 4 4 6 6 10 14 2 4 6 24 46 62 62 68 76
16 18 13 13 5 8 19 17 10 4 9 12 9 11 17 6 14 35 16 7 14 8 7 13 14 9 9 7 6 3 3 6 12 10 5 3 5 8 11 21 40 53 67 70 72
16 20 18 15 3 16 15 9 1 4 4 3 5 6 22 17 4 33 25 32 11 8 4 1 12 11 13 6 4 12 8 2 8 7 8 1 3 5 10 17 35 48 63 69 73
16 19 21 16 9 14 14 4 5 11 7 2 4 7 8 19 10 8 16 23 9 12 18 4 5 7 6 10 3 13 4 10 8 5 3 2 6 4 9 21 27 45 61 70 72
16 18 20 19 11 15 10 4 9 7 6 2 3 6 8 11 12 15 11 15 8 5 11 8 7 10 11 10 10 20 11 6 7 6 5 3 3 6 9 15 20 45 60 70 68
17 18 20 20 11 16 13 9 4 5 8 2 5 6 8 5 8 12 7 8 11 9 7 6 6 13 18 7 5 10 6 7 7 7 9 8 3 6 9 23 42 48 54 61 66
17 18 18 19 18 17 13 5 10 10 7 13 5 7 3 2 9 10 9 4 1 6 7 7 2 2 9 8 3 7 12 3 3 1 4 4 4 2 17 28 44 45 50 61 66
18 17 15 18 20 21 7 9 7 3 2 3 6 2 7 1 5 6 1 3 1 2 2 6 5 4 6 2 21 14 4 4 7 6 11 7 7 6 18 24 29 46 56 65 68
20 11 15 22 21 11 7 10 6 6 4 5 8 7 5 6 6 3 3 3 3 2 4 3 4 3 3 11 2 9 6 12 9 5 7 5 9 11 7 15 18 41 55 67 70
15 3 21 27 7 6 8 9 8 7 5 5 8 7 8 5 6 5 6 2 3 3 4 2 7 3 1 2 7 5 6 5 8 8 4 6 11 16 5 19 30 47 58 67 62
9 7 18 28 8 1 2 4 3 7 4 5 6 5 5 7 5 4 6 4 3 5 8 10 4 4 1 2 5 2 5 8 9 6 8 7 11 9 18 42 51 50 62 69 66
11 4 8 14 9 16 11 7 6 3 5 8 9 8 7 6 10 10 6 5 4 5 8 6 5 8 10 5 7 5 7 7 8 6 7 11 17 17 18 17 47 47 61 65 61
10 6 10 6 6 12 7 11 11 10 4 8 4 5 11 8 5 7 5 5 2 9 4 5 5 4 2 5 4 6 8 14 11 9 11 5 13 15 11 20 34 37 58 61 60
8 8 11 6 19 17 5 14 16 7 8 8 10 8 5 11 7 17 13 9 8 5 4 5 5 3 2 4 2 9 11 14 12 7 14 12 18 8 26 29 38 38 58 63 62
18 10 6 3 8 8 11 14 16 24 3 4 18 12 8 5 11 23 14 22 19 14 6 5 9 5 4 5 9 13 13 17 8 9 11 10 12 8 16 33 36 37 51 56 55
Wind_Direction_500mb
56 87 103 124 125 124 123 116 114 122 126 131 124 86 9 24 42 36 26 3 354 358 356 16 22 100 79 59 57 86 72 129 152 154 124 130 119 70 82 80 74 73 59 20 354
69 92 121 133 131 128 130 122 123 126 133 148 176 327 333 346 12 29 14 350 337 351 -0 18 58 47 57 35 25 53 74 56 308 119 118 109 110 118 92 75 60 47 41 8 346
71 94 131 132 133 131 126 117 119 130 149 208 286 325 328 312 10 4 6 -0 2 10 20 10 58 49 68 43 19 33 83 121 61 102 113 108 89 93 114 48 47 42 14 1 357
72 105 133 136 134 130 120 118 120 119 100 309 311 327 18 75 63 2 14 21 17 32 357 187 79 56 64 48 22 94 56 105 115 110 103 87 108 82 78 79 57 33 20 4 358
84 114 133 138 138 125 113 101 116 112 86 38 352 325 25 63 17 20 28 26 10 20 39 105 71 94 85 100 62 79 99 82 110 107 103 110 95 93 74 69 41 25 17 8 360
99 120 134 142 153 140 112 119 129 127 92 66 57 37 103 66 15 26 44 48 46 42 76 85 97 105 88 53 57 104 100 105 103 105 113 107 97 101 62 47 33 22 15 11 8
113 123 134 147 157 154 113 127 149 156 68 37 352 109 64 51 26 26 57 56 58 63 81 81 79 86 95 100 121 111 87 91 112 112 128 100 39 58 61 41 30 20 13 9 6
140 137 143 150 158 160 124 146 202 212 348 3 21 74 80 51 27 149 92 76 72 53 65 92 94 78 76 121 116 86 101 119 195 165 170 16 126 72 52 37 27 17 12 6 4
175 166 165 163 162 161 101 41 194 187 340 29 27 95 66 33 31 52 143 97 83 69 78 95 85 77 75 63 41 21 236 131 127 216 130 77 141 122 43 32 22 13 7 3 0
200 198 186 178 179 179 97 81 119 162 38 346 21 85 41 22 29 25 88 111 173 93 56 43 61 67 30 33 287 294 321 85 126 63 48 93 117 128 46 32 19 7 2 2 359
208 206 192 196 190 190 225 183 187 92 77 75 68 76 34 56 35 30 92 76 60 64 60 35 61 37 314 239 252 277 114 94 98 91 100 105 120 129 32 27 11 1 360 358 352
212 215 210 208 202 225 282 234 148 129 85 69 60 37 39 44 68 46 59 64 50 60 9 38 50 324 289 340 76 122 116 88 68 36 87 126 144 152 52 17 4 356 352 351 350
214 214 218 210 231 273 262 151 134 124 88 44 36 29 29 44 41 15 39 76 71 58 40 95 299 323 61 26 34 343 167 170 233 122 52 120 163 358 330 356 355 358 352 357 353
216 211 212 193 204 177 139 128 139 150 75 320 359 24 5 68 58 29 35 63 45 120 87 79 347 17 33 70 31 20 4 253 159 142 204 155 290 350 335 336 346 341 352 352 350
217 209 206 199 229 172 164 124 98 140 35 347 16 36 44 82 121 21 40 66 75 34 110 254 5 1 30 337 341 249 339 182 132 121 108 180 21 233 359 328 335 339 346 348 349
217 208 208 205 201 179 169 156 101 45 248 95 27 10 60 34 43 14 48 71 89 67 39 75 31 52 286 305 293 310 148 50 63 91 359 113 162 18 349 312 323 340 345 347 347
218 204 204 197 199 186 178 157 45 142 18 228 89 63 77 22 36 33 47 25 53 68 16 8 16 339 8 354 15 24 47 330 352 2 248 208 59 218 263 301 321 330 340 345 347
213 200 202 204 197 187 171 56 196 160 201 96 101 76 83 19 24 21 74 49 35 46 77 54 357 9 349 73 285 9 74 109 291 307 296 295 270 266 207 344 349 348 344 346 346
207 195 200 203 204 183 174 91 218 201 170 142 76 86 63 76 113 79 48 96 319 356 111 125 298 356 65 53 14 347 45 200 78 79 359 281 272 104 321 348 342 343 344 347 349
197 190 194 197 190 172 96 217 176 173 136 136 137 115 157 59 81 75 57 258 266 59 282 188 91 36 343 85 38 88 143 40 22 19 306 304 275 242 330 330 335 341 345 346 348
185 187 183 176 169 182 166 198 174 162 132 124 152 119 116 140 98 99 153 216 207 17 87 122 82 294 19 24 340 355 33 54 108 96 181 313 279 194 258 300 320 334 346 347 348
187 141 174 168 115 46 147 164 137 151 133 107 96 103 140 128 99 113 146 61 176 174 104 55 120 94 115 68 88 97 132 113 114 270 76 142 277 162 222 320 349 344 350 351 348
207 143 175 177 144 123 186 69 119 140 152 124 108 82 69 111 100 94 116 146 132 148 163 179 42 24 297 8 352 165 121 101 102 90 199 125 274 187 337 0 355 348 349 352 350
190 106 153 189 150 139 149 167 129 130 116 113 123 108 114 95 24 153 132 188 147 128 125 140 111 157 192 178 136 186 177 151 120 108 187 226 288 303 332 336 344 347 352 350 353
214 214 168 194 207 135 114 137 139 163 144 156 83 174 151 120 101 141 136 123 121 147 79 108 139 162 160 126 184 230 184 175 171 178 165 237 235 287 301 318 336 343 351 350 350
206 171 149 89 144 118 139 210 161 165 143 208 155 135 134 154 176 189 143 186 179 158 92 13 174 122 246 149 252 273 236 194 213 195 260 268 282 184 328 339 345 348 351 350 351
209 210 166 124 141 115 199 175 190 139 81 96 154 117 99 149 120 106 114 118 137 139 132 92 130 101 274 358 323 302 224 188 184 183 167 216 231 337 324 333 335 347 350 348 351
Wind_Speed_850mb
6 5 6 8 12 15 16 15 13 12 10 12 12 5 11 14 21 18 17 23 22 14 7 10 10 4 8 14 14 7 9 7 8 12 10 22 12 26 31 40 39 24 23 20 27
6 6 7 11 16 17 15 11 9 7 7 8 2 6 11 8 10 27 17 14 14 14 7 8 8 10 10 11 14 15 9 7 8 9 11 16 22 16 14 28 27 28 23 23 34
9 7 11 16 19 17 14 9 5 4 3 3 5 10 14 6 4 27 21 14 12 9 8 3 3 11 14 16 21 14 9 8 24 46 44 22 24 12 28 13 21 25 33 40 44
10 11 15 19 21 16 9 7 6 5 2 4 9 7 17 4 4 26 22 15 12 8 8 1 2 8 13 12 13 15 26 16 31 36 23 14 23 37 39 18 26 33 36 40 50
10 12 16 20 19 9 8 5 8 10 11 10 5 2 5 12 18 20 19 17 11 7 3 11 9 11 11 15 21 20 11 25 33 49 49 48 33 31 32 27 31 35 45 48 47
9 11 15 17 13 7 6 6 10 13 10 16 23 5 2 13 20 20 14 17 21 14 11 9 14 26 30 18 15 33 48 40 37 34 25 31 12 12 18 29 41 46 48 50 53
9 11 13 13 10 8 5 6 7 7 5 7 7 4 29 18 26 15 10 21 27 22 24 14 7 3 16 20 48 36 16 21 14 11 22 30 17 9 16 39 50 52 53 57 59
8 10 11 10 10 9 5 4 5 6 1 8 5 12 12 18 24 6 11 18 21 22 28 33 32 45 20 49 10 9 9 7 8 19 12 7 6 13 26 47 51 55 60 65 66
8 8 8 8 11 9 6 1 5 6 2 6 9 5 8 10 25 19 12 9 13 27 32 27 36 30 12 6 6 10 1 5 8 5 7 6 9 8 31 51 56 61 65 66 74
10 8 8 11 8 10 9 13 11 4 1 5 6 8 13 14 33 21 10 3 1 2 7 19 21 11 10 14 3 6 3 4 7 2 12 16 12 10 30 54 54 56 64 72 75
13 10 8 10 8 11 5 3 4 9 36 24 21 14 16 5 27 32 7 3 13 22 10 23 19 9 9 2 11 6 3 7 3 4 9 11 13 7 13 51 54 59 69 69 68
16 14 10 11 9 8 8 6 6 19 22 20 19 10 29 17 4 31 28 14 19 9 5 13 11 10 8 13 4 6 7 4 4 4 9 10 9 4 14 26 33 50 65 64 74
17 16 11 12 7 8 5 15 24 14 10 9 15 15 11 25 23 39 19 14 19 18 18 15 7 15 5 9 12 4 4 4 6 6 10 14 2 4 6 24 46 62 62 68 76
16 18 13 13 5 8 19 17 10 4 9 12 9 11 17 6 14 35 16 7 14 8 7 13 14 9 9 7 6 3 3 6 12 10 5 3 5 8 11 21 40 53 67 70 72
16 20 18 15 3 16 15 9 1 4 4 3 5 6 22 17 4 33 25 32 11 8 4 1 12 11 13 6 4 12 8 2 8 7 8 1 3 5 10 17 35 48 63 69 73
16 19 21 16 9 14 14 4 5 11 7 2 4 7 8 19 10 8 16 23 9 12 18 4 5 7 6 10 3 13 4 10 8 5 3 2 6 4 9 21 27 45 61 70 72
16 18 20 19 11 15 10 4 9 7 6 2 3 6 8 11 12 15 11 15 8 5 11 8 7 10 11 10 10 20 11 6 7 6 5 3 3 6 9 15 20 45 60 70 68
17 18 20 20 11 16 13 9 4 5 8 2 5 6 8 5 8 12 7 8 11 9 7 6 6 13 18 7 5 10 6 7 7 7 9 8 3 6 9 23 42 48 54 61 66
17 18 18 19 18 17 13 5 10 10 7 13 5 7 3 2 9 10 9 4 1 6 7 7 2 2 9 8 3 7 12 3 3 1 4 4 4 2 17 28 44 45 50 61 66
18 17 15 18 20 21 7 9 7 3 2 3 6 2 7 1 5 6 1 3 1 2 2 6 5 4 6 2 21 14 4 4 7 6 11 7 7 6 18 24 29 46 56 65 68
20 11 15 22 21 11 7 10 6 6 4 5 8 7 5 6 6 3 3 3 3 2 4 3 4 3 3 11 2 9 6 12 9 5 7 5 9 11 7 15 18 41 55 67 70
15 3 21 27 7 6 8 9 8 7 5 5 8 7 8 5 6 5 6 2 3 3 4 2 7 3 1 2 7 5 6 5 8 8 4 6 11 16 5 19 30 47 58 67 62
9 7 18 28 8 1 2 4 3 7 4 5 6 5 5 7 5 4 6 4 3 5 8 10 4 4 1 2 5 2 5 8 9 6 8 7 11 9 18 42 51 50 62 69 66
11 4 8 14 9 16 11 7 6 3 5 8 9 8 7 6 10 10 6 5 4 5 8 6 5 8 10 5 7 5 7 7 8 6 7 11 17 17 18 17 47 47 61 65 61
10 6 10 6 6 12 7 11 11 10 4 8 4 5 11 8 5 7 5 5 2 9 4 5 5 4 2 5 4 6 8 14 11 9 11 5 13 15 11 20 34 37 58 61 60
8 8 11 6 19 17 5 14 16 7 8 8 10 8 5 11 7 17 13 9 8 5 4 5 5 3 2 4 2 9 11 14 12 7 14 12 18 8 26 29 38 38 58 63 62
18 10 6 3 8 8 11 14 16 24 3 4 18 12 8 5 11 23 14 22 19 14 6 5 9 5 4 5 9 13 13 17 8 9 11 10 12 8 16 33 36 37 51 56 55
Wind_Direction_850mb
56 87 103 124 125 124 123 116 114 122 126 131 124 86 9 24 42 36 26 3 354 358 356 16 22 100 79 59 57 86 72 129 152 154 124 130 119 70 82 80 74 73 59 20 354
69 92 121 133 131 128 130 122 123 126 133 148 176 327 333 346 12 29 14 350 337 351 -0 18 58 47 57 35 25 53 74 56 308 119 118 109 110 118 92 75 60 47 41 8 346
71 94 131 132 133 131 126 117 119 130 149 208 286 325 328 312 10 4 6 -0 2 10 20 10 58 49 68 43 19 33 83 121 61 102 113 108 89 93 114 48 47 42 14 1 357
72 105 133 136 134 130 120 118 120 119 100 309 311 327 18 75 63 2 14 21 17 32 357 187 79 56 64 48 22 94 56 105 115 110 103 87 108 82 78 79 57 33 20 4 358
84 114 133 138 138 125 113 101 116 112 86 38 352 325 25 63 17 20 28 26 10 20 39 105 71 94 85 100 62 79 99 82 110 107 103 110 95 93 74 69 41 25 17 8 360
99 120 134 142 153 140 112 119 129 127 92 66 57 37 103 66 15 26 44 48 46 42 76 85 97 105 88 53 57 104 100 105 103 105 113 107 97 101 62 47 33 22 15 11 8
113 123 134 147 157 154 113 127 149 156 68 37 352 109 64 51 26 26 57 56 58 63 81 81 79 86 95 100 121 111 87 91 112 112 128 100 39 58 61 41 30 20 13 9 6
140 137 143 150 158 160 124 146 202 212 348 3 21 74 80 51 27 149 92 76 72 53 65 92 94 78 76 121 116 86 101 119 195 165 170 16 126 72 52 37 27 17 12 6 4
175 166 165 163 162 161 101 41 194 187 340 29 27 95 66 33 31 52 143 97 83 69 78 95 85 77 75 63 41 21 236 131 127 216 130 77 141 122 43 32 22 13 7 3 0
200 198 186 178 179 179 97 81 119 162 38 346 21 85 41 22 29 25 88 111 173 93 56 43 61 67 30 33 287 294 321 85 126 63 48 93 117 128 46 32 19 7 2 2 359
208 206 192 196 190 190 225 183 187 92 77 75 68 76 34 56 35 30 92 76 60 64 60 35 61 37 314 239 252 277 114 94 98 91 100 105 120 129 32 27 11 1 360 358 352
212 215 210 208 202 225 282 234 148 129 85 69 60 37 39 44 68 46 59 64 50 60 9 38 50 324 289 340 76 122 116 88 68 36 87 126 144 152 52 17 4 356 352 351 350
214 214 218 210 231 273 262 151 134 124 88 44 36 29 29 44 41 15 39 76 71 58 40 95 299 323 61 26 34 343 167 170 233 122 52 120 163 358 330 356 355 358 352 357 353
216 211 212 193 204 177 139 128 139 150 75 320 359 24 5 68 58 29 35 63 45 120 87 79 347 17 33 70 31 20 4 253 159 142 204 155 290 350 335 336 346 341 352 352 350
217 209 206 199 229 172 164 124 98 140 35 347 16 36 44 82 121 21 40 66 75 34 110 254 5 1 30 337 341 249 339 182 132 121 108 180 21 233 359 328 335 339 346 348 349
217 208 208 205 201 179 169 156 101 45 248 95 27 10 60 34 43 14 48 71 89 67 39 75 31 52 286 305 293 310 148 50 63 91 359 113 162 18 349 312 323 340 345 347 347
218 204 204 197 199 186 178 157 45 142 18 228 89 63 77 22 36 33 47 25 53 68 16 8 16 339 8 354 15 24 47 330 352 2 248 208 59 218 263 301 321 330 340 345 347
213 200 202 204 197 187 171 56 196 160 201 96 101 76 83 19 24 21 74 49 35 46 77 54 357 9 349 73 285 9 74 109 291 307 296 295 270 266 207 344 349 348 344 346 346
207 195 200 203 204 183 174 91 218 201 170 142 76 86 63 76 113 79 48 96 319 356 111 125 298 356 65 53 14 347 45 200 78 79 359 281 272 104 321 348 342 343 344 347 349
197 190 194 197 190 172 96 217 176 173 136 136 137 115 157 59 81 75 57 258 266 59 282 188 91 36 343 85 38 88 143 40 22 19 306 304 275 242 330 330 335 341 345 346 348
185 187 183 176 169 182 166 198 174 162 132 124 152 119 116 140 98 99 153 216 207 17 87 122 82 294 19 24 340 355 33 54 108 96 181 313 279 194 258 300 320 334 346 347 348
187 141 174 168 115 46 147 164 137 151 133 107 96 103 140 128 99 113 146 61 176 174 104 55 120 94 115 68 88 97 132 113 114 270 76 142 277 162 222 320 349 344 350 351 348
207 143 175 177 144 123 186 69 119 140 152 124 108 82 69 111 100 94 116 146 132 148 163 179 42 24 297 8 352 165 121 101 102 90 199 125 274 187 337 0 355 348 349 352 350
190 106 153 189 150 139 149 167 129 130 116 113 123 108 114 95 24 153 132 188 147 128 125 140 111 157 192 178 136 186 177 151 120 108 187 226 288 303 332 336 344 347 352 350 353
214 214 168 194 207 135 114 137 139 163 144 156 83 174 151 120 101 141 136 123 121 147 79 108 139 162 160 126 184 230 184 175 171 178 165 237 235 287 301 318 336 343 351 350 350
206 171 149 89 144 118 139 210 161 165 143 208 155 135 134 154 176 189 143 186 179 158 92 13 174 122 246 149 252 273 236 194 213 195 260 268 282 184 328 339 345 348 351 350 351
209 210 166 124 141 115 199 175 190 139 81 96 154 117 99 149 120 106 114 118 137 139 132 92 130 101 274 358 323 302 224 188 184 183 167 216 231 337 324 333 335 347 350 348 351